Weather History for KGRD - February, 2014

Change the Weather History Date:

Monday, February 24, 2014

  Actual Average (KAND) Record (KAND)
Temperature  
Mean Temperature 55 °F -  
Max Temperature 69 °F 59 °F 79 °F (1982)
Min Temperature 41 °F 36 °F 20 °F (1967)
Degree Days  
Heating Degree Days 10    
Growing Degree Days 5 (Base 50)    
Moisture  
Dew Point 36 °F    
Average Humidity 56    
Maximum Humidity 93    
Minimum Humidity 19    
Precipitation  
Precipitation 0.00 in - - ()
Sea Level Pressure  
Sea Level Pressure 30.04 in    
Wind  
Wind Speed 4 mph (WNW)    
Max Wind Speed 8 mph    
Max Gust Speed -    
Visibility 9 miles    
Events Rain    
Averages and records for this station are not official NWS values.
T = Trace of Precipitation, MM = Missing Value Source: NWS Daily Summary

Daily Weather History Graph

Daily Weather History Graph

Search for Another Location

Airport or City:

Trip Planner

Search our weather history database for the weather conditions in past years. The results will help you decide how hot, cold, wet, or windy it might be!

Date:

Astronomy

Feb. 24, 2014 Rise Set
Actual Time 7:03 AM EST 6:20 PM EST
Civil Twilight 6:38 AM EST 6:45 PM EST
Nautical Twilight 6:09 AM EST 7:15 PM EST
Astronomical Twilight 5:40 AM EST 7:44 PM EST
Moon 2:53 AM EST (2/24) 1:28 PM EST (2/24)
Length of Visible Light 12h 07m
Length of Day
11h 16m
Waning Crescent, 28% of the Moon is Illuminated
Feb 24
Waning Crescent
Mar 1
New
Mar 8
First Quarter
Mar 16
Full
Mar 23
Last Quarter

Hourly Weather History & Observations

Time (EST) Temp. Windchill Dew Point Humidity Pressure Visibility Wind Dir Wind Speed Gust Speed Precip Events Conditions
12:56 AM 52.0 °F - 46.0 °F 80% 29.94 in 10.0 mi SW 8.1 mph - N/A   Clear
1:56 AM 53.1 °F - 46.9 °F 80% 29.94 in 10.0 mi WSW 8.1 mph - N/A   Clear
2:56 AM 52.0 °F - 46.0 °F 80% 29.93 in 10.0 mi WSW 6.9 mph - N/A   Clear
3:56 AM 50.0 °F - 45.0 °F 83% 29.93 in 10.0 mi WSW 4.6 mph - N/A   Clear
4:56 AM 46.9 °F - 43.0 °F 86% 29.97 in 10.0 mi Calm Calm - N/A   Clear
5:56 AM 45.0 °F - 41.0 °F 86% 30.01 in 10.0 mi Calm Calm - N/A   Clear
6:24 AM 42.8 °F - 39.2 °F 87% 30.03 in 2.5 mi Calm Calm - N/A   Clear
6:32 AM 42.8 °F - 41.0 °F 93% 30.04 in 8.0 mi Calm Calm - N/A   Clear
6:56 AM 41.0 °F - 39.0 °F 93% 30.05 in 5.0 mi Calm Calm - N/A   Clear
7:56 AM 44.1 °F - 41.0 °F 89% 30.08 in 10.0 mi Calm Calm - N/A   Clear
8:56 AM 53.1 °F - 39.0 °F 59% 30.09 in 10.0 mi Calm Calm - N/A   Clear
9:56 AM 55.9 °F - 37.0 °F 49% 30.11 in 10.0 mi Calm Calm - N/A   Clear
10:56 AM 60.1 °F - 37.0 °F 42% 30.10 in 10.0 mi Calm Calm - N/A   Clear
11:56 AM 61.0 °F - 36.0 °F 39% 30.09 in 10.0 mi South 4.6 mph - N/A   Clear
12:56 PM 66.0 °F - 34.0 °F 30% 30.06 in 10.0 mi Variable 5.8 mph - N/A   Clear
1:56 PM 66.9 °F - 34.0 °F 30% 30.03 in 10.0 mi Variable 4.6 mph - N/A   Clear
2:56 PM 69.1 °F - 30.9 °F 24% 30.01 in 10.0 mi Calm Calm - 0.00 in   Clear
3:56 PM 69.1 °F - 28.9 °F 22% 30.02 in 10.0 mi SSW 5.8 mph - 0.00 in Rain Light Rain
4:56 PM 69.1 °F - 25.0 °F 19% 30.03 in 10.0 mi Variable 3.5 mph - 0.00 in   Clear
5:56 PM 66.9 °F - 26.1 °F 21% 30.04 in 10.0 mi Calm Calm - N/A   Clear
6:56 PM 61.0 °F - 28.9 °F 30% 30.07 in 10.0 mi Calm Calm - N/A   Clear
7:56 PM 52.0 °F - 30.9 °F 45% 30.08 in 10.0 mi North 8.1 mph - N/A   Clear
8:56 PM 55.9 °F - 30.0 °F 37% 30.09 in 10.0 mi NE 3.5 mph - N/A   Clear
9:56 PM 51.1 °F - 30.9 °F 46% 30.11 in 10.0 mi NNE 4.6 mph - N/A   Clear
10:56 PM 51.1 °F - 28.9 °F 43% 30.10 in 10.0 mi NNE 3.5 mph - N/A   Clear
11:56 PM 46.0 °F 44.8 °F 30.0 °F 54% 30.09 in 10.0 mi North 3.5 mph - N/A   Clear